"Period start","avg(HW err(1)/warn(2) (#))","avg(Visibility (m))","avg(Weather code (#))","avg(Precip intensity (mm/h))","min(HW err(1)/warn(2) (#))","max(HW err(1)/warn(2) (#))","std(HW err(1)/warn(2) (#))","med(HW err(1)/warn(2) (#))","min(Visibility (m))","max(Visibility (m))","std(Visibility (m))","med(Visibility (m))","min(Weather code (#))","max(Weather code (#))","std(Weather code (#))","med(Weather code (#))","min(Precip intensity (mm/h))","max(Precip intensity (mm/h))","std(Precip intensity (mm/h))","med(Precip intensity (mm/h))"
2017-10-11 00:00:00,2,50000,0,0.00,2,2,0,2,50000,50000,0,50000,0,0,0,0,0.00,0.00,0.00,0.00
2017-10-11 00:10:00,2,49902,0,0.00,2,2,0,2,49023,50000,293,50000,0,0,0,0,0.00,0.00,0.00,0.00
2017-10-11 00:20:00,2,49993,0,0.00,2,2,0,2,49930,50000,21,50000,0,0,0,0,0.00,0.00,0.00,0.00
2017-10-11 00:30:00,2,49652,0,0.00,2,2,0,2,47797,50000,726,50000,0,0,0,0,0.00,0.00,0.00,0.00
2017-10-11 00:40:00,2,50000,0,0.00,2,2,0,2,50000,50000,0,50000,0,0,0,0,0.00,0.00,0.00,0.00
2017-10-11 00:50:00,2,50000,0,0.00,2,2,0,2,50000,50000,0,50000,0,0,0,0,0.00,0.00,0.00,0.00
2017-10-11 01:00:00,2,49701,0,0.00,2,2,0,2,48245,50000,609,50000,0,0,0,0,0.00,0.00,0.00,0.00
2017-10-11 01:10:00,2,50000,0,0.00,2,2,0,2,50000,50000,0,50000,0,0,0,0,0.00,0.00,0.00,0.00
2017-10-11 01:20:00,2,49348,0,0.00,2,2,0,2,43482,50000,1955,50000,0,0,0,0,0.00,0.00,0.00,0.00
2017-10-11 01:30:00,2,49728,0,0.00,2,2,0,2,47686,50000,691,50000,0,0,0,0,0.00,0.00,0.00,0.00
2017-10-11 01:40:00,2,49306,0,0.00,2,2,0,2,43463,50000,1951,50000,0,0,0,0,0.00,0.00,0.00,0.00
2017-10-11 01:50:00,2,50000,0,0.00,2,2,0,2,50000,50000,0,50000,0,0,0,0,0.00,0.00,0.00,0.00
2017-10-11 02:00:00,2,49101,0,0.00,2,2,0,2,42281,50000,2305,50000,0,0,0,0,0.00,0.00,0.00,0.00
2017-10-11 02:10:00,2,49596,0,0.00,2,2,0,2,48307,50000,636,50000,0,0,0,0,0.00,0.00,0.00,0.00
2017-10-11 02:20:00,2,49566,0,0.00,2,2,0,2,47471,50000,883,50000,0,0,0,0,0.00,0.00,0.00,0.00
2017-10-11 02:30:00,2,48741,0,0.00,2,2,0,2,44233,50000,2019,50000,0,0,0,0,0.00,0.00,0.00,0.00
2017-10-11 02:40:00,2,49322,0,0.00,2,2,0,2,46086,50000,1376,50000,0,0,0,0,0.00,0.00,0.00,0.00
2017-10-11 02:50:00,2,49728,0,0.00,2,2,0,2,48227,50000,574,50000,0,0,0,0,0.00,0.00,0.00,0.00
2017-10-11 03:00:00,2,48771,0,0.00,2,2,0,2,43851,50000,1985,50000,0,0,0,0,0.00,0.00,0.00,0.00
2017-10-11 03:10:00,2,49488,0,0.00,2,2,0,2,47920,50000,805,50000,0,0,0,0,0.00,0.00,0.00,0.00
2017-10-11 03:20:00,2,49961,0,0.00,2,2,0,2,49743,50000,82,50000,0,0,0,0,0.00,0.00,0.00,0.00
2017-10-11 03:30:00,2,49810,0,0.00,2,2,0,2,48140,50000,557,50000,0,0,0,0,0.00,0.00,0.00,0.00
2017-10-11 03:40:00,2,49830,0,0.00,2,2,0,2,48299,50000,510,50000,0,0,0,0,0.00,0.00,0.00,0.00
2017-10-11 03:50:00,2,49618,0,0.00,2,2,0,2,46739,50000,974,50000,0,0,0,0,0.00,0.00,0.00,0.00
2017-10-11 04:00:00,2,48095,0,0.00,2,2,0,2,41390,50000,2934,49830,0,0,0,0,0.00,0.00,0.00,0.00
2017-10-11 04:10:00,2,50000,0,0.00,2,2,0,2,50000,50000,0,50000,0,0,0,0,0.00,0.00,0.00,0.00
2017-10-11 04:20:00,2,49192,0,0.00,2,2,0,2,44276,50000,1783,50000,0,0,0,0,0.00,0.00,0.00,0.00
2017-10-11 04:30:00,2,49715,0,0.00,2,2,0,2,47815,50000,658,50000,0,0,0,0,0.00,0.00,0.00,0.00
2017-10-11 04:40:00,2,49829,0,0.00,2,2,0,2,48814,50000,366,50000,0,0,0,0,0.00,0.00,0.00,0.00
2017-10-11 04:50:00,2,50000,0,0.00,2,2,0,2,50000,50000,0,50000,0,0,0,0,0.00,0.00,0.00,0.00
2017-10-11 05:00:00,2,49715,0,0.00,2,2,0,2,47149,50000,855,50000,0,0,0,0,0.00,0.00,0.00,0.00
2017-10-11 05:10:00,2,49672,0,0.00,2,2,0,2,46718,50000,985,50000,0,0,0,0,0.00,0.00,0.00,0.00
2017-10-11 05:20:00,2,49708,0,0.00,2,2,0,2,47079,50000,876,50000,0,0,0,0,0.00,0.00,0.00,0.00
2017-10-11 05:30:00,2,49503,0,0.00,2,2,0,2,46680,50000,1002,50000,0,0,0,0,0.00,0.00,0.00,0.00
2017-10-11 05:40:00,2,50000,0,0.00,2,2,0,2,50000,50000,0,50000,0,0,0,0,0.00,0.00,0.00,0.00
2017-10-11 05:50:00,2,50000,0,0.00,2,2,0,2,50000,50000,0,50000,0,0,0,0,0.00,0.00,0.00,0.00
2017-10-11 06:00:00,2,50000,0,0.00,2,2,0,2,50000,50000,0,50000,0,0,0,0,0.00,0.00,0.00,0.00
2017-10-11 06:10:00,2,50000,0,0.00,2,2,0,2,50000,50000,0,50000,0,0,0,0,0.00,0.00,0.00,0.00
2017-10-11 06:20:00,2,50000,0,0.00,2,2,0,2,50000,50000,0,50000,0,0,0,0,0.00,0.00,0.00,0.00
2017-10-11 06:30:00,2,50000,0,0.00,2,2,0,2,50000,50000,0,50000,0,0,0,0,0.00,0.00,0.00,0.00
2017-10-11 06:40:00,2,50000,0,0.00,2,2,0,2,50000,50000,0,50000,0,0,0,0,0.00,0.00,0.00,0.00
2017-10-11 06:50:00,2,50000,0,0.00,2,2,0,2,50000,50000,0,50000,0,0,0,0,0.00,0.00,0.00,0.00
2017-10-11 07:00:00,2,50000,0,0.00,2,2,0,2,50000,50000,0,50000,0,0,0,0,0.00,0.00,0.00,0.00
2017-10-11 07:10:00,2,50000,0,0.00,2,2,0,2,50000,50000,0,50000,0,0,0,0,0.00,0.00,0.00,0.00
2017-10-11 07:20:00,2,50000,0,0.00,2,2,0,2,50000,50000,0,50000,0,0,0,0,0.00,0.00,0.00,0.00
2017-10-11 07:30:00,2,50000,0,0.00,2,2,0,2,50000,50000,0,50000,0,0,0,0,0.00,0.00,0.00,0.00
2017-10-11 07:40:00,2,50000,0,0.00,2,2,0,2,50000,50000,0,50000,0,0,0,0,0.00,0.00,0.00,0.00
2017-10-11 07:50:00,2,50000,0,0.00,2,2,0,2,50000,50000,0,50000,0,0,0,0,0.00,0.00,0.00,0.00
2017-10-11 08:00:00,2,50000,0,0.00,2,2,0,2,50000,50000,0,50000,0,0,0,0,0.00,0.00,0.00,0.00
2017-10-11 08:10:00,2,50000,0,0.00,2,2,0,2,50000,50000,0,50000,0,0,0,0,0.00,0.00,0.00,0.00
2017-10-11 08:20:00,2,50000,0,0.00,2,2,0,2,50000,50000,0,50000,0,0,0,0,0.00,0.00,0.00,0.00
2017-10-11 08:30:00,2,50000,0,0.00,2,2,0,2,50000,50000,0,50000,0,0,0,0,0.00,0.00,0.00,0.00
2017-10-11 08:40:00,2,49115,0,0.00,2,2,0,2,44463,50000,1839,50000,0,0,0,0,0.00,0.00,0.00,0.00
2017-10-11 08:50:00,2,50000,0,0.00,2,2,0,2,50000,50000,0,50000,0,0,0,0,0.00,0.00,0.00,0.00
2017-10-11 09:00:00,2,50000,0,0.00,2,2,0,2,50000,50000,0,50000,0,0,0,0,0.00,0.00,0.00,0.00
2017-10-11 09:10:00,2,50000,0,0.00,2,2,0,2,50000,50000,0,50000,0,0,0,0,0.00,0.00,0.00,0.00
2017-10-11 09:20:00,2,50000,0,0.00,2,2,0,2,50000,50000,0,50000,0,0,0,0,0.00,0.00,0.00,0.00
2017-10-11 09:30:00,2,50000,0,0.00,2,2,0,2,50000,50000,0,50000,0,0,0,0,0.00,0.00,0.00,0.00
2017-10-11 09:40:00,2,50000,0,0.00,2,2,0,2,50000,50000,0,50000,0,0,0,0,0.00,0.00,0.00,0.00
2017-10-11 09:50:00,2,50000,0,0.00,2,2,0,2,50000,50000,0,50000,0,0,0,0,0.00,0.00,0.00,0.00
2017-10-11 10:00:00,2,50000,0,0.00,2,2,0,2,50000,50000,0,50000,0,0,0,0,0.00,0.00,0.00,0.00
2017-10-11 10:10:00,2,49234,0,0.00,2,2,0,2,45741,50000,1544,50000,0,0,0,0,0.00,0.00,0.00,0.00
2017-10-11 10:20:00,2,50000,15,0.00,2,2,0,2,50000,50000,0,50000,0,71,24,0,0.00,0.00,0.00,0.00
2017-10-11 10:30:00,2,45367,14,0.01,2,2,0,2,33637,50000,5695,49018,0,71,28,0,0.00,0.05,0.02,0.00
2017-10-11 10:40:00,2,36521,28,0.01,2,2,0,2,15193,50000,12693,35737,0,71,35,0,0.00,0.15,0.05,0.00
2017-10-11 10:50:00,2,8013,71,0.45,2,2,0,2,5355,13567,2605,7608,71,71,0,71,0.05,1.15,0.35,0.43
2017-10-11 11:00:00,2,8348,71,0.67,2,2,0,2,6307,10963,1232,8215,71,71,0,71,0.10,1.20,0.34,0.65
2017-10-11 11:10:00,2,6351,71,1.02,2,2,0,2,4186,10891,2048,6094,71,71,0,71,0.35,1.95,0.44,0.97
2017-10-11 11:20:00,2,6614,71,0.84,2,2,0,2,5219,8008,939,6636,71,71,0,71,0.20,1.30,0.30,0.85
2017-10-11 11:30:00,2,8087,71,0.52,2,2,0,2,5963,10769,1493,8294,71,71,0,71,0.15,1.15,0.34,0.52
2017-10-11 11:40:00,2,11120,71,0.15,2,2,0,2,7892,16370,2302,11118,71,71,0,71,0.05,0.35,0.09,0.12
2017-10-11 11:50:00,2,16528,73,0.04,2,2,0,2,11871,20555,3086,16990,71,77,3,71,0.00,0.15,0.05,0.03
2017-10-11 12:00:00,2,15175,74,0.01,2,2,0,2,13380,18236,1484,15048,71,77,3,74,0.00,0.05,0.02,0.00
2017-10-11 12:10:00,2,11414,74,0.06,2,2,0,2,8856,16779,2452,10778,71,77,3,74,0.00,0.15,0.04,0.05
2017-10-11 12:20:00,2,9380,73,0.10,2,2,0,2,6626,12100,1534,9334,71,77,3,71,0.05,0.30,0.08,0.05
2017-10-11 12:30:00,2,14255,72,0.03,2,2,0,2,11263,17948,2293,13614,71,77,2,71,0.00,0.05,0.03,0.03
2017-10-11 12:40:00,2,16680,76,0.01,2,2,0,2,12683,20633,2450,16844,71,77,2,77,0.00,0.05,0.02,0.00
2017-10-11 12:50:00,2,8039,73,0.25,2,2,0,2,4879,15376,3678,6028,71,77,3,71,0.00,0.60,0.18,0.28
2017-10-11 13:00:00,2,6191,71,0.53,2,2,0,2,3738,8486,1755,6157,71,71,0,71,0.20,0.90,0.26,0.55
2017-10-11 13:10:00,2,6858,71,0.31,2,2,0,2,5840,8180,818,6573,71,71,0,71,0.15,0.65,0.18,0.20
2017-10-11 13:20:00,2,5879,71,0.25,2,2,0,2,3172,8811,1925,6070,71,71,0,71,0.05,0.60,0.19,0.22
2017-10-11 13:30:00,2,2308,71,0.70,2,2,0,2,1244,3669,752,2307,71,71,0,71,0.20,1.55,0.46,0.70
2017-10-11 13:40:00,2,1930,71,2.31,2,2,0,2,1384,2394,307,1975,71,71,0,71,1.20,5.10,1.19,1.85
2017-10-11 13:50:00,2,1362,71,7.05,2,2,0,2,1101,1504,123,1370,71,71,0,71,5.05,9.10,1.27,7.20
2017-10-11 14:00:00,2,2345,71,3.45,2,2,0,2,1579,3327,475,2384,71,71,0,71,2.15,5.75,1.28,3.05
2017-10-11 14:10:00,2,4143,71,1.43,2,2,0,2,3086,7139,1189,3774,71,71,0,71,0.65,2.80,0.61,1.48
2017-10-11 14:20:00,2,6988,71,0.94,2,2,0,2,3391,10400,2495,7223,71,71,0,71,0.10,2.95,0.92,0.47
2017-10-11 14:30:00,2,3747,71,1.58,2,2,0,2,2798,4607,553,3839,71,71,0,71,1.10,2.60,0.40,1.48
2017-10-11 14:40:00,2,3772,71,1.22,2,2,0,2,2489,5286,811,3764,71,71,0,71,0.45,1.70,0.42,1.12
2017-10-11 14:50:00,2,5109,71,1.19,2,2,0,2,3256,6785,1144,4972,71,71,0,71,0.40,2.05,0.57,1.08
2017-10-11 15:00:00,2,4904,71,1.77,2,2,0,2,2085,8760,2342,3888,71,71,0,71,0.35,3.05,0.89,2.00
2017-10-11 15:10:00,2,8414,71,0.70,2,2,0,2,6806,10529,1272,8084,71,71,0,71,0.30,1.30,0.31,0.57
2017-10-11 15:20:00,2,10856,71,0.29,2,2,0,2,8202,13485,1634,10964,71,71,0,71,0.05,0.80,0.25,0.22
2017-10-11 15:30:00,2,10272,71,0.28,2,2,0,2,8164,12259,1376,10465,71,71,0,71,0.05,0.60,0.18,0.23
2017-10-11 15:40:00,2,6255,71,0.59,2,2,0,2,3559,9170,1842,5740,71,71,0,71,0.10,1.40,0.43,0.48
2017-10-11 15:50:00,2,5463,71,0.74,2,2,0,2,2694,8732,1607,5347,71,71,0,71,0.25,2.10,0.53,0.57
2017-10-11 16:00:00,2,14955,71,0.24,2,2,0,2,5149,29299,7914,13174,71,71,0,71,0.00,0.95,0.32,0.05
2017-10-11 16:10:00,2,19937,71,0.04,2,2,0,2,8852,37270,9009,18488,71,71,0,71,0.00,0.10,0.04,0.03
2017-10-11 16:20:00,2,14928,71,0.04,2,2,0,2,11876,18832,2310,14682,71,71,0,71,0.00,0.20,0.06,0.05
2017-10-11 16:30:00,2,9532,71,0.29,2,2,0,2,6131,18392,3411,9012,71,71,0,71,0.05,0.70,0.18,0.28
2017-10-11 16:40:00,2,11013,71,0.15,2,2,0,2,8151,13983,1727,11244,71,71,0,71,0.00,0.55,0.17,0.05
2017-10-11 16:50:00,2,9748,71,0.07,2,2,0,2,7651,13067,1620,9418,71,71,0,71,0.00,0.15,0.06,0.05
2017-10-11 17:00:00,2,23217,78,0.00,2,2,0,2,12969,30490,6116,24764,77,78,0,78,0.00,0.00,0.00,0.00
2017-10-11 17:10:00,2,46521,62,0.00,2,2,0,2,29506,50000,6546,50000,0,78,31,78,0.00,0.00,0.00,0.00
2017-10-11 17:20:00,2,50000,0,0.00,2,2,0,2,50000,50000,0,50000,0,0,0,0,0.00,0.00,0.00,0.00
2017-10-11 17:30:00,2,47962,0,0.00,2,2,0,2,42876,50000,2654,49866,0,0,0,0,0.00,0.00,0.00,0.00
2017-10-11 17:40:00,2,49246,0,0.00,2,2,0,2,46728,50000,1148,50000,0,0,0,0,0.00,0.00,0.00,0.00
2017-10-11 17:50:00,2,49752,0,0.00,2,2,0,2,47824,50000,649,50000,0,0,0,0,0.00,0.00,0.00,0.00
2017-10-11 18:00:00,2,49961,0,0.00,2,2,0,2,49607,50000,118,50000,0,0,0,0,0.00,0.00,0.00,0.00
2017-10-11 18:10:00,2,49912,0,0.00,2,2,0,2,49400,50000,190,50000,0,0,0,0,0.00,0.00,0.00,0.00
2017-10-11 18:20:00,2,50000,0,0.00,2,2,0,2,50000,50000,0,50000,0,0,0,0,0.00,0.00,0.00,0.00
2017-10-11 18:30:00,2,49790,0,0.00,2,2,0,2,47897,50000,631,50000,0,0,0,0,0.00,0.00,0.00,0.00
2017-10-11 18:40:00,2,50000,0,0.00,2,2,0,2,50000,50000,0,50000,0,0,0,0,0.00,0.00,0.00,0.00
2017-10-11 18:50:00,2,50000,0,0.00,2,2,0,2,50000,50000,0,50000,0,0,0,0,0.00,0.00,0.00,0.00
2017-10-11 19:00:00,2,50000,0,0.00,2,2,0,2,50000,50000,0,50000,0,0,0,0,0.00,0.00,0.00,0.00
2017-10-11 19:10:00,2,50000,0,0.00,2,2,0,2,50000,50000,0,50000,0,0,0,0,0.00,0.00,0.00,0.00
2017-10-11 19:20:00,2,50000,0,0.00,2,2,0,2,50000,50000,0,50000,0,0,0,0,0.00,0.00,0.00,0.00
2017-10-11 19:30:00,2,49937,0,0.00,2,2,0,2,49463,50000,160,50000,0,0,0,0,0.00,0.00,0.00,0.00
2017-10-11 19:40:00,2,49964,0,0.00,2,2,0,2,49640,50000,108,50000,0,0,0,0,0.00,0.00,0.00,0.00
2017-10-11 19:50:00,2,45605,0,0.00,2,2,0,2,37299,50000,4132,45097,0,0,0,0,0.00,0.00,0.00,0.00
2017-10-11 20:00:00,2,39883,0,0.00,2,2,0,2,25766,50000,9873,42780,0,0,0,0,0.00,0.00,0.00,0.00
2017-10-11 20:10:00,2,49811,0,0.00,2,2,0,2,48493,50000,454,50000,0,0,0,0,0.00,0.00,0.00,0.00
2017-10-11 20:20:00,2,49731,0,0.00,2,2,0,2,48069,50000,598,50000,0,0,0,0,0.00,0.00,0.00,0.00
2017-10-11 20:30:00,2,49722,0,0.00,2,2,0,2,48715,50000,480,50000,0,0,0,0,0.00,0.00,0.00,0.00
2017-10-11 20:40:00,2,50000,0,0.00,2,2,0,2,50000,50000,0,50000,0,0,0,0,0.00,0.00,0.00,0.00
2017-10-11 20:50:00,2,49687,0,0.00,2,2,0,2,46866,50000,940,50000,0,0,0,0,0.00,0.00,0.00,0.00
2017-10-11 21:00:00,2,50000,0,0.00,2,2,0,2,50000,50000,0,50000,0,0,0,0,0.00,0.00,0.00,0.00
2017-10-11 21:10:00,2,49959,0,0.00,2,2,0,2,49590,50000,123,50000,0,0,0,0,0.00,0.00,0.00,0.00
2017-10-11 21:20:00,2,49992,0,0.00,2,2,0,2,49921,50000,24,50000,0,0,0,0,0.00,0.00,0.00,0.00
2017-10-11 21:30:00,2,50000,0,0.00,2,2,0,2,50000,50000,0,50000,0,0,0,0,0.00,0.00,0.00,0.00
2017-10-11 21:40:00,2,50000,0,0.00,2,2,0,2,50000,50000,0,50000,0,0,0,0,0.00,0.00,0.00,0.00
2017-10-11 21:50:00,2,50000,0,0.00,2,2,0,2,50000,50000,0,50000,0,0,0,0,0.00,0.00,0.00,0.00
2017-10-11 22:00:00,2,49892,0,0.00,2,2,0,2,48924,50000,323,50000,0,0,0,0,0.00,0.00,0.00,0.00
2017-10-11 22:10:00,2,49872,0,0.00,2,2,0,2,49164,50000,257,50000,0,0,0,0,0.00,0.00,0.00,0.00
2017-10-11 22:20:00,2,50000,0,0.00,2,2,0,2,50000,50000,0,50000,0,0,0,0,0.00,0.00,0.00,0.00
2017-10-11 22:30:00,2,50000,0,0.00,2,2,0,2,50000,50000,0,50000,0,0,0,0,0.00,0.00,0.00,0.00
2017-10-11 22:40:00,2,49850,0,0.00,2,2,0,2,48502,50000,449,50000,0,0,0,0,0.00,0.00,0.00,0.00
2017-10-11 22:50:00,2,50000,0,0.00,2,2,0,2,50000,50000,0,50000,0,0,0,0,0.00,0.00,0.00,0.00
2017-10-11 23:00:00,2,50000,0,0.00,2,2,0,2,50000,50000,0,50000,0,0,0,0,0.00,0.00,0.00,0.00
2017-10-11 23:10:00,2,50000,0,0.00,2,2,0,2,50000,50000,0,50000,0,0,0,0,0.00,0.00,0.00,0.00
2017-10-11 23:20:00,2,49977,0,0.00,2,2,0,2,49771,50000,69,50000,0,0,0,0,0.00,0.00,0.00,0.00
2017-10-11 23:30:00,2,50000,0,0.00,2,2,0,2,50000,50000,0,50000,0,0,0,0,0.00,0.00,0.00,0.00
2017-10-11 23:40:00,2,50000,0,0.00,2,2,0,2,50000,50000,0,50000,0,0,0,0,0.00,0.00,0.00,0.00
2017-10-11 23:50:00,2,49772,0,0.00,2,2,0,2,47719,50000,684,50000,0,0,0,0,0.00,0.00,0.00,0.00
